Showing default

IRIDE-MS2-HEO-9, 64585

Orbit data source: Space-Track

IRIDE-MS2-HEO-9, 64585 is an Italian payload satellite in SSO that was launched on Mon, 23 Jun 2025 UTC via an FALCON 9 launch vehicle from the Air Force Western Test Range (AFWTR). Payload-class satellites include a variety of spacecraft equipped with specific instruments for various scientific and technological missions. These include communications satellites like Starlink; space stations such as the ISS; scientific satellites like the Hubble; Earth observation satellites from companies like Planet Labs, Umbra, and HawkEye 360; GPS; miniature CubeSats for education and research; and military/defense satellites.

Loading next visibility...
Identifier
64585, 2025-135BK
Orbit
SSO
Country
Flag of ITIT
Related business
Manufacturer
ArgoTec
Mission
Operational Civil Imaging
Bus & Motor
HAWK, Unknown motor
Mass
65 kg wet, 65 kg dry
Launch date (UTC)
2025-06-23 (8 months ago)
Launch vehicle
FALCON 9
Launch site
Air Force Western Test Range (AFWTR)
Object type
Payload
Rocket body
Debris
Shape & HBR
Box + 2 Pan, 3.0 m
Radar Cross Section
0.683 m², Medium (>0.1 m² and < 1m²)

Expand to show TLE details & history
Last TLE update: 5 hours ago

TLE from 5 hours ago
0 IRIDE-MS2-HEO-9
1 64585U 25135BK  26062.54885360  .00003467  00000-0  33020-3 0  9990
2 64585  97.7629 178.3726 0003514   2.9454 357.1786 14.94039911 38134
Epoch: 2026-03-03T13:10Z
TLE epoch observation values (Epoch: 2026-03-03T13:10:20.951Z)
Latitude
-0°
Longitude
179.45898°
Altitude
585.955 km
Speed
7.569 km/s
True Right ascension
11h 53m 29s
True Declination
0° 00' 00"
Sunlit
Object was in full shadow at epoch
Visualization orbit readout
Latitude
Unknown
Longitude
Unknown
Altitude
Unknown
Speed
Unknown
Apparent Right ascension
Unknown
Apparent Declination
Unknown
Sunlit
N/A
Visualization observer readout
Local Sidereal Time
21:48:32
Azimuth
Unknown
Elevation
Unknown
Doppler factor
Unknown
Orbital elements
Apogee altitude
584.816 km
Perigee altitude
579.924 km
Semi-major axis
6,960.507 km
Eccentricity
0.00035
Inclination
97.7629°
RAAN
178.3726°
Arg. of periapsis
2.9454°
True anomaly
357.17662°
Mean anomaly
357.1786°
Eccentric anomaly
357.17761°
Mean motion
3.73751 °/min
Orbital period
96.32 mins
BSTAR
0.0003302
Loading maneuver chart data...
Computing Atmospheric mass density...
Loading historical data...
Loading historical data...
Loading historical data...
Loading historical data...
Loading historical data...
Loading historical data...
Loading historical data...

Documentation

Showing up to 5 results
|